Location: Armstrong
(40.9123°N, 82.0110°W)
Time: 23:44:01
(UTC+00:00)

COSMO-SKYMED 1 - Pass Details

Date: 29 October 2020
Orbit: 621 x 623 km, 97.9° (Epoch: 29 November)

Event Time Altitude Azimuth Distance (km) Brightness Sun altitude
Rises 23:31:13 0° 13° (NNE) 2,911 5.8 -12.7°
Reaches altitude 10° 23:33:25 10° 14° (NNE) 2,000 5.0 -13.1°
Maximum altitude 23:37:47 83° 102° (ESE) 633 2.5 -13.9°
Drops below altitude 10° 23:42:06 10° 191° (S) 1,984 5.4 -14.7°
Sets 23:44:17 0° 192° (SSW) 2,885 6.2 -15.1°
